Location: Baix
(44.7118°N, 4.7648°E)
Time: 11:45:40
(UTC+00:00)

Tiros 1 despin weight - Pass Details

Date: 26 November 2020
Orbit: 594 x 641 km, 48.2° (Epoch: 17 January)

Event Time Altitude Azimuth Distance (km) Brightness Sun altitude
Rises 18:48:41 0° 289° (WNW) 2,935 ? -28.7°
Reaches altitude 10° 18:51:13 10° 280° (W) 2,018 ? -29.2°
Enters shadow 18:55:08 31° 223° (SW) 1,103 ? -29.9°
